Regional Weather Roundup
Issued by NWS

Home | Current Version | Previous Version | Text Only | Print | Product List | Glossary Off
Versions: 1 2 3 4 5 6 7 8 9 10 11 12 13 14 15 16 17 18 19 20 21 22 23 24 25 26 27 28 29 30 31 32 33 34 35 36 37 38 39 40 41 42 43 44 45 46 47 48 49 50

000
ASUS43 KFSD 221102
RWRSD

WEATHER ROUNDUP FOR SOUTH DAKOTA
NATIONAL WEATHER SERVICE SIOUX FALLS SD
500 AM CST MON JAN 22 2018

NOTE: "FAIR" INDICATES FEW OR NO CLOUDS BELOW 12,000 FEET WITH NO
SIGNIFICANT WEATHER AND/OR OBSTRUCTIONS TO VISIBILITY.


SDZ001>005-009-010-012>017-221200-
NORTHWEST AND NORTH CENTRAL SOUTH DAKOTA

CITY           SKY/WX    TMP DP  RH WIND       PRES   REMARKS
BUFFALO          N/A     17  11  77 NW10      29.90F WCI   5
FAITH            N/A     18  16  92 NW8       29.96R WCI   8
MOBRIDGE       FOG       24  21  88 N6        29.97R VSB 1/2 WCI  17
$$

SDZ012>016-024>037-041>051-057-063-072>074-221200-
SOUTHWEST AND SOUTH CENTRAL SOUTH DAKOTA

CITY           SKY/WX    TMP DP  RH WIND       PRES   REMARKS
RAPID CTY ARPT CLEAR     28  17  63 N17       29.95S WCI  16
PIERRE         FOG       23  23 100 NW8       29.97S VSB 1   WCI  14
CUSTER         PTCLDY    22   8  55 CALM      29.89R
ELLSWORTH AFB  CLEAR     28  17  62 N15       29.95R WCI  17
PHILIP         MOCLDY    22  20  92 NW6       29.98R WCI  14
PINE RIDGE     MOCLDY    19  16  88 W7        29.97S WCI  10
SPEARFISH        N/A     19  12  73 W8        29.97S WCI   9
WINNER         CLOUDY    27  25  92 NW15      29.90F FOG     WCI  15
$$

SDZ004>011-016>023-039-040-221200-
NORTHEAST SOUTH DAKOTA

CITY           SKY/WX    TMP DP  RH WIND       PRES   REMARKS
ABERDEEN       CLOUDY    23  21  92 N20       29.99S WCI   8
WATERTOWN      FOG       22  21  96 N18       29.85F VSB 3/4 WCI   7
BROOKINGS      FLURRIES  24  23  96 N18G25    29.81F WCI  10
SISSETON         N/A     25  24  96 N17       29.96F WCI  12
$$

SDZ017-020-022-023-036>040-048>070-221200-
SOUTHEAST SOUTH DAKOTA

CITY           SKY/WX    TMP DP  RH WIND       PRES   REMARKS
SIOUX FALLS    LGT SNOW  29  27  92 N25G35    29.72S BLWGSNOWWCI  14
HURON          CLOUDY    23  22  96 N16       29.90F WCI  10
CHAMBERLAIN    CLOUDY    26  26 100 NW17      29.89F WCI  13
MITCHELL       CLOUDY    26  24  92 N24       29.84F WCI  11
YANKTON        FLURRIES  32  29  88 N24G30    29.69F WCI  19
$$

ABBREVIATIONS USED IN REMARKS
   TC - TEMPERATURE IN CELSIUS
  WCI - WIND CHILL INDEX
   HX - HEAT INDEX
  VSB - VISIBILITY





USA.gov is the U.S. government's official web portal to all federal, state and local government web resources and services.